Location: Unspecified
(0.0000°N, 0.0000°E)
Time: 05:58:48
(UTC+00:00)

Vanguard 2 Rocket - Pass Details

Date: 07 October 2023
Orbit: 552 x 3312 km, 32.9° (Epoch: 06 December)

Event Time Altitude Azimuth Distance (km) Brightness Sun altitude
Rises 15:53:44 0° 307° (NW) 7,284 12.1 28.4°
Reaches altitude 10° 15:58:44 10° 308° (NW) 6,247 11.9 27.1°
Maximum altitude 16:18:35 83° 36° (NE) 2,685 9.6 22.2°
Drops below altitude 10° 16:31:15 10° 123° (ESE) 4,244 9.9 19.1°
Sets 16:33:57 0° 123° (ESE) 4,939 10.2 18.4°
